Regional Weather Roundup
Issued by NWS Charleston, SC

Current Version | Previous Version | Graphics & Text | Print | Product List | Glossary On
Versions: 1 2 3 4 5 6 7 8 9 10 11 12 13 14 15 16 17 18 19 20 21 22 23 24 25 26 27 28 29 30 31 32 33 34 35 36 37 38 39 40 41 42 43 44 45 46 47 48 49 50
000 ASUS42 KCHS 292112 RWRCHS REGIONAL WEATHER ROUNDUP NATIONAL WEATHER SERVICE CHARLESTON SC 500 PM EDT WED JUL 29 2015 NOTE: "FAIR" INDICATES FEW OR NO CLOUDS BELOW 12,000 FEET WITH NO SIGNIFICANT WEATHER AND/OR OBSTRUCTIONS TO VISIBILITY. NOT ALL STATIONS ARE QUALITY CONTROLLED BY THE NATIONAL WEATHER SERVICE. USE DATA WITH CAUTION...ESPECIALLY DEWPOINT OBSERVATIONS. SCZ027-030-031-034>040-042>050-292200- ...SOUTHEAST SOUTH CAROLINA... CITY SKY/WX TMP DP RH WIND PRES REMARKS N CHARLESTON LGT RAIN 88 76 67 E10 29.91F HX 99 WATERFRONT PRK N/A 90 78 68 E9 29.90F HX 104 MOUNT PLEASANT LGT RAIN 90 75 62 E5 29.92S HX 100 JOHNS ISLAND FAIR 88 75 66 E10 29.91F HX 97 PINOPOLIS NOT AVBL MONCKS CORNER FAIR 95 68 41 NE6 29.91F HX 99 SUMMERVILLE FAIR 95 70 43 N3 29.92F HX 101 BEAUFORT MCAS MOSUNNY 93 76 57 SE5 29.90F HX 105 BEAUFORT ARPT FAIR 90 77 66 SE7 29.91F HX 102 HILTON HEAD IS MOSUNNY 86 73 66 NE3 29.93F HX 93 WALTERBORO CLEAR 97 59 28 N8 29.91F HX 96 ALLENDALE FAIR 95 68 41 CALM 29.89F HX 99 ...SOUTHERN MIDLANDS AND PEE DEE... CITY SKY/WX TMP DP RH WIND PRES REMARKS GEORGETOWN NOT AVBL KINGSTREE NOT AVBL ORANGEBURG MOSUNNY 96 63 33 E8 29.91F HX 97 BARNWELL FAIR 93 73 52 CALM 29.91F HX 102 AIKEN FAIR 91 64 40 E6 29.96 HX 93 MANNING FAIR 93 63 36 S3 29.91F HX 94 COLUMBIA MOSUNNY 98 65 33 E5 29.89F HX 101 SUMTER MOSUNNY 95 65 37 NE8 29.89F HX 97 FLORENCE SUNNY 95 66 38 E10 29.92F HX 98 MYRTLE BEACH MOSUNNY 88 73 62 E14 29.96F HX 96 N MYRTLE BEACH SUNNY 86 72 62 E12 29.94F HX 92 $$ GAZ063-065-086>088-099>101-113>116-118-119-134>141-150-292200- ...SOUTHEAST GEORGIA... CITY SKY/WX TMP DP RH WIND PRES REMARKS SAVANNAH ARPT PTSUNNY 92 71 50 SE6 29.91F HX 98 HUNTER AAF SUNNY 91 77 64 SE10 29.89F HX 105 FORT STEWART MOSUNNY 95 71 45 SE10 29.88F HX 102 STATESBORO MOSUNNY 96 75 50 SW3 29.90S HX 108 SYLVANIA PTCLDY 96 73 47 SE3 29.90F HX 106 CLAXTON FAIR 95 72 46 SE5 29.90S HX 103 ...CSRA...CENTRAL AND FAR SOUTHEAST GEORGIA... CITY SKY/WX TMP DP RH WIND PRES REMARKS THOMSON CLOUDY 79 78 94 SW12G23 29.99R AUGUSTA-BUSH MOSUNNY 93 73 52 VRB3 29.90F HX 102 AUGUSTA-DANIEL MOSUNNY 91 76 61 S9 29.93F HX 103 SWAINSBORO LGT RAIN 90 79 70 NE6 29.92F HX 105 VIDALIA MOSUNNY 93 73 52 E6 29.92S HX 102 EASTMAN CLOUDY 82 79 92 N6 29.94F HX 91 HAZLEHURST FAIR 94 72 49 CALM 29.90F HX 102 ALMA SUNNY 93 74 53 VRB3 29.91S HX 103 WAYCROSS SUNNY 94 80 61 E6 29.91S HX 113 JESUP FAIR 95 75 52 E7 29.90F HX 107 BAXLEY PTSUNNY 93 75 55 SE5 29.91S HX 104 BRUNSWICK SUNNY 90 72 55 NE10 29.92S HX 96 SAINT SIMONS SUNNY 87 74 64 E13 29.92F HX 95 $$ SCZ027-028-034-036>038-045-046-048>050-GAZ119-141-292200- ...LAKE AND SUPPLEMENTAL COASTAL OBSERVATIONS... STATION/POSITION TIME TEMP WIND PRES WAVE SWELL AIR SEA DIR/SP/G HT/PER HT/PER/DIR (UTC) (F) (DEG/KT/KT) (MB) (FT/S) (FT/S/D) UPR LAKE MARION NOT AVBL WINYAH BAY NOT AVBL LAKE MURRAY 2000 98 CALM 1012.5F ACE BASIN NERRS 1945 91 150/ 3 1014.0 FORT PULASKI 2000 85 N/A SAPELO ISLAND 2000 90 80/ 9 1013.0F $$ ANZ835-935-AMZ111-154-330-350-352-354-370-450-454-472-292200- ...C-MAN AND BUOY OBSERVATIONS... STATION/POSITION TIME TEMP WIND PRES WAVE SWELL AIR SEA DIR/SP/G HT/PER HT/PER/DIR (UTC) (F) (DEG/KT/KT) (MB) (FT/S) (FT/S/D) BUOY 41004 2050 83 85 40/ 16/ 17 1012.4F 3/ 6 2/ 7 BUOY 41008 2050 82 83 60/ 10/ 10 1013.0F 2/ 5 2/130/ 5 FOLLY BEACH CMAN 2000 84 80/ 12/ 13 1013.7F CAPERS NEARSHORE 2008 82 80/ 14/ 16 1013.6F FRIPP NEARSHORE 2000 85 90/ 10/ 14 1013.3F STATION/POSITION TIME TEMP WIND PRES WAVE SWELL AIR SEA DIR/SP/G HT/PER HT/PER/DIR (UTC) (F) (DEG/KT/KT) (MB) (FT/S) (FT/S/D) 5E ST. MARYS GA 2021 83 N/A 2/11 FRYING PAN BUOY 2050 83 84 50/ 16/ 17 1014.1F 4/ 6 2/160/10 BUOY 41025 NOT AVBL CAPE LOOKOUT NC 2000 82 50/ 12/ 14 1015.1F BUOY 41002 2050 84 82 220/ 14/ 16 1014.8R 5/ 7 2/ 80/ 9 BUOY 41010 2020 79 84 210/ 19/ 23 1013.5R ST AUGUSTINE FL 2100 81 83 40/ 8/ 8 1013.8F $$

USA.gov is the U.S. government's official web portal to all federal, state and local government web resources and services.